Regional Weather Roundup
Issued by NWS

Home | Current Version | Previous Version | Graphics & Text | Print | Product List | Glossary On
Versions: 1 2 3 4 5 6 7 8 9 10 11 12 13 14 15 16 17 18 19 20 21 22 23 24 25 26 27
000
ASUS45 KBOU 241010
RWRCO

WEATHER ROUNDUP FOR COLORADO
NATIONAL WEATHER SERVICE DENVER/BOULDER CO
300 AM MST FRI NOV 24 2017

NOTE: "FAIR" INDICATES FEW OR NO CLOUDS BELOW 12000 FEET WITH NO
SIGNIFICANT WEATHER AND/OR OBSTRUCTIONS TO VISIBILITY.

COZ001>005-013-030-031-241100-
...NORTHWEST COLORADO...

CITY           SKY/WX    TMP DP  RH WIND       PRES   REMARKS
CRAIG          CLOUDY    32  29  88 CALM      30.07F
HAYDEN         CLOUDY    36  32  85 SE6       30.09S
MEEKER         MOCLDY    39  31  72 CALM      30.10S
RABBIT EARS PA CLOUDY    32  27  80 W8        30.21R WCI  25
STEAMBOAT SPGS FAIR      31  30  96 CALM      30.10R
WALDEN         FAIR      43  23  45 SE8G22    30.09F
$$

COZ006>008-011-241100-
...WEST CENTRAL VALLEYS...

CITY           SKY/WX    TMP DP  RH WIND       PRES   REMARKS
GRAND JUNCTION FAIR      41  33  73 E7        30.10S
MONTROSE       FAIR      35  27  72 E5        30.15F WCI  31
EAGLE          FAIR      29  27  92 CALM      30.16F
RIFLE          FAIR      35  32  88 CALM      30.14S
DELTA          FAIR      36  28  72 CALM      30.14R
NUCLA          FAIR      37  21  52 SE9       30.19F
$$

COZ017>023-064>068-241100-
...SOUTHWEST COLORADO...

CITY           SKY/WX    TMP DP  RH WIND       PRES   REMARKS
DURANGO        FAIR      22  19  89 E6        30.19F WCI  14
CORTEZ         FAIR      27  22  81 CALM      30.17F
PAGOSA SPRINGS FAIR      29  26  90 CALM      30.22F
TELLURIDE      FAIR      39  15  37 SE7       30.28F
WOLF CREEK PAS FAIR      32  16  51 SW10      30.41F WCI  24
$$

COZ009-010-012-014-032>034-037-058>063-241100-
...CENTRAL COLORADO...

CITY           SKY/WX    TMP DP  RH WIND       PRES   REMARKS
ASPEN          FAIR      33  24  69 SW6       30.15F WCI  28
BUENA VISTA    FAIR      50  12  21 N12G21    30.09F
COPPER MTN     NOT AVBL
BERTHOUD PASS  FAIR      30  19  64 W43G66    30.20F WCI  13
COTTONWOOD PAS FAIR      52   9  17 W26G38    30.13F
GUNNISON       FAIR      24  22  91 CALM      30.23F
KREMMLING      FAIR      36  30  80 SE6       30.12S
LEADVILLE      FAIR      40  10  29 NE14G21   30.19F
MONARCH PASS   FAIR      32  16  51 W33G39    30.41F WCI  17
SALIDA         FAIR      54  17  23 SW22G29   30.13F
SUNLIGHT       MOCLDY    34  21  60 SW16G24   30.30F WCI  23
WILKERSON PASS FAIR      37   0  20 W15G28    30.19F
$$

COZ069>075-241100-
...SAN LUIS VALLEY/SANGRE DE CRISTO MOUNTAINS...

CITY           SKY/WX    TMP DP  RH WIND       PRES   REMARKS
ALAMOSA        FAIR      21  17  84 W5        30.17F WCI  15
DEL NORTE      FAIR      31  14  50 CALM      30.19F
LA VETA PASS   FAIR      36  23  60 SW35G51     N/A
SAGUACHE       FAIR      28  19  69 N7        30.19F WCI  21
$$

COZ035-036-038>040-241100-
...NORTHERN COLORADO FRONT RANGE...

CITY           SKY/WX    TMP DP  RH WIND       PRES   REMARKS
DENVER INTL AP FAIR      58  20  22 W9        29.84F
DMNS CITY PARK   N/A     49  20  32 W2G20     29.86S
AURORA         PTCLDY    50  20  30 S8        29.87F
FRONT RANGE AP FAIR      60  22  22 S5        29.87S
ERIE MUNI ARPT FAIR      65  13  13 W14G22    29.87F
BOULDER MUN AP FAIR      61  23  23 NE9       29.82F
CENTENNIAL     FAIR      51  20  29 SW7       29.88F
BROOMFIELD     FAIR      64  14  14 NW14G21   29.86F
FORT COLLINS   FAIR      48  30  49 E6        29.83R
LONGMONT       FAIR      65  19  17 W10G20    29.83S
$$

COZ041-046-047-076>085-087-088-241100-
...PIKES PEAK/PALMER DIVIDE AND SOUTHERN FOOTHILLS...

CITY           SKY/WX    TMP DP  RH WIND       PRES   REMARKS
COLO. SPRINGS  FAIR      55  18  23 VRB5      29.95S
A. F. ACADEMY  FAIR      41  16  35 NE5       29.95F
SCHRIEVER AFB  FAIR      61   8  12 NW14G21   29.95F
CHEYENNE MTN   FAIR      57  10  15 S5        29.92F
ELLICOTT         N/A    N/A N/A N/A N9        29.92F
FALCON         FAIR      42  13  30 NW7       29.98F
FORT CARSON    FAIR      54  17  23 S5        29.91F
LIMON          FAIR      31  25  78 N7        29.88F WCI  24
MONUMENT HILL  FAIR      46  16  29 SW10      29.98F
CANON CITY     FAIR      50  21  32 MISG      29.92F
WALSENBURG     FAIR      57  27  30 W17G29    29.98S
TRINIDAD       FAIR      52  23  32 W16       29.94F
$$

COZ042>045-048>051-090-091-241100-
...NORTHEAST COLORADO...

CITY           SKY/WX    TMP DP  RH WIND       PRES   REMARKS
GREELEY ARPT   FAIR      37  29  72 CALM      29.83F
AKRON          FAIR      50  25  37 W13       29.82S
BURLINGTON     FAIR      43  33  68 W12       29.81F
WRAY           NOT AVBL
YUMA           FAIR      41  28  60 W9        29.79S
STERLING       FAIR      43  32  65 S7        29.78F
HOLYOKE        FAIR      45  32  61 W9        29.77F
FORT MORGAN    FAIR      40  25  53 W9        29.83S
$$

COZ086-089-092>099-241100-
...SOUTHEAST COLORADO...

CITY           SKY/WX    TMP DP  RH WIND       PRES   REMARKS
PUEBLO         FAIR      50  25  37 W15       29.88S
LA JUNTA       FAIR      45  28  51 SW6       29.85F
LAMAR          FAIR      38  30  73 W6        29.82S
SPRINGFIELD      N/A     45  27  49 W9        29.85S
$$




USA.gov is the U.S. government's official web portal to all federal, state and local government web resources and services.